Simultaneous Nadir Overpasses (SNOs) Predictions

Prediction of SNOs between FY3D and AQUA Satellite Orbit:

Table of predicted SNOs for the next 14.0 days since TLE Epoch: 10/18/2023
Index Date (FY3D) Time (FY3D) Lat,Lon (FY3D) SZA (FY3D ) Date (AQUA) Time (AQUA) Lat,Lon (AQUA) SZA (AQUA ) Distance(km) Time Diff (sec)
1 10/20/2023 13:46:41 78.96, -45.93 89.67 10/20/2023 13:46:59 78.96, -45.90 89.66 0.77 18
2 10/20/2023 14:37:16 -78.58, 123.94 90.82 10/20/2023 14:36:13 -78.59, 123.88 90.80 1.68 63
3 10/23/2023 02:41:28 79.04, 119.90 90.66 10/23/2023 02:42:20 79.04, 119.78 90.66 2.73 52
4 10/23/2023 03:32:07 -78.80, -71.15 89.64 10/23/2023 03:31:37 -78.80, -71.08 89.65 1.61 30
5 10/25/2023 16:26:53 -78.85, 94.88 88.71 10/25/2023 16:26:56 -78.86, 94.75 88.69 3.17 3
6 10/28/2023 05:21:44 -79.11,-100.65 87.50 10/28/2023 05:22:17 -79.10,-100.51 87.53 3.06 33
7 10/28/2023 06:12:18 78.70, 69.55 91.98 10/28/2023 06:11:31 78.70, 69.54 91.98 0.24 47
8 10/30/2023 18:16:30 -79.17, 65.24 86.58 10/30/2023 18:17:33 -79.17, 65.30 86.61 1.15 63



Historial Predications of SNOs between FY3D and AQUA
